JCSAT-1B

Last updated on Mon Sep 04 2017 00:18:16 GMT+0000 (Coordinated Universal Time)

1 25067U 97075A 17246.78478059 -.00000189 00000-0 00000+0 0 9994 2 25067 5.6947 58.3084 0021062 113.0565 275.5550 0.98655601 72371
UTC large
Height (km)
Speed (km/s)
/
Latitude / Longitude
Inclination (degrees)
Orbital Period (minutes)
Azimuth
Elevation
Range (km)
Doppler Factor

Next 0 passes for location: London (51.5072 / 0.1276)

Sorry there are no passes over London.
JCSAT-1B